{"data":{"norad_id":66347,"intl_designator":"2025-253AE","name":"STARLINK-35438","alt_names":[],"object_type":"PAYLOAD","status":"ACTIVE","operator":null,"country":"US","launch_date":"2025-11-06","launch_site_code":"AFETR","launch_vehicle":null,"mission":null,"orbit_class":"UNKNOWN","rcs_meters":null,"size_class":null,"mass_kg":null,"dimensions":null,"purposes":["comms"],"wikipedia_slug":null,"has_3d_model":false,"image_url":null,"decayed_at":null,"tle_current":{"epoch":"2026-05-25T00:46:58.825056Z","epoch_age_seconds":82747,"freshness":"FRESH","line1":"1 66347U 25253AE  26145.03262529  .00020225  00000+0  74172-3 0  9994","line2":"2 66347  42.9989 141.0531 0000535 314.0513  46.0294 15.27612464 31922","mean_motion":15.27612464,"eccentricity":5.35e-5,"inclination_deg":42.9989,"raan_deg":141.0531,"arg_perigee_deg":314.0513,"mean_anomaly_deg":46.0294,"bstar":0.00074172,"rev_number":3192,"period_min":94.264745407314,"perigee_km":482.58482061077,"apogee_km":483.31895712187,"semimajor_km":6861.0888888663,"source":"CELESTRAK","updated_at":"2026-05-25T13:38:21.172878Z"}}}